{"data":{"norad_id":64442,"intl_designator":"2025-130E","name":"STARLINK-34404","alt_names":[],"object_type":"PAYLOAD","status":"ACTIVE","operator":null,"country":"US","launch_date":"2025-06-18","launch_site_code":"AFETR","launch_vehicle":null,"mission":null,"orbit_class":"UNKNOWN","rcs_meters":null,"size_class":null,"mass_kg":null,"dimensions":null,"purposes":["comms"],"wikipedia_slug":null,"has_3d_model":false,"image_url":null,"decayed_at":null,"tle_current":{"epoch":"2026-05-25T03:36:11.365056Z","epoch_age_seconds":52258,"freshness":"FRESH","line1":"1 64442U 25130E   26145.15013154  .00018818  00000+0  56665-3 0  9995","line2":"2 64442  53.1592  93.0935 0001017  78.6517 281.4600 15.34401378 52418","mean_motion":15.34401378,"eccentricity":0.0001017,"inclination_deg":53.1592,"raan_deg":93.0935,"arg_perigee_deg":78.6517,"mean_anomaly_deg":281.46,"bstar":0.00056665,"rev_number":5241,"period_min":93.847673799469,"perigee_km":462.00343146787,"apogee_km":463.39485753967,"semimajor_km":6840.8361445038,"source":"CELESTRAK","updated_at":"2026-05-25T13:38:20.447180Z"}}}